Flag for Norway Weather past 2 weeks in Haugesund, Norway

Now
52 °F

Sunny.


Feels Like: 48 °F
Forecast: 35 / 58 °F
Wind: 12 mph from Southwest

Location: Haugesund / Karmoy


UV Index: 0 (Low)

Visibility: 10 mi


Pressure: 30.30 "Hg

Humidity: 58%

Dew point: 37 °F

Location of HaugesundLocation

Historic Weather in Haugesund

°F

Haugesund temperature yesterday

Maximum temperature yesterday: 46 °F (at 11:20 AM)
Minimum temperature yesterday: 43 °F (at 12:20 AM)
Average temperature yesterday: 44 °F

Past Weeks' High & Low Weather Summary

 TemperatureHumidityPressure
High54 °F (Apr 4, 2:20 PM)100% (Apr 5, 6:50 PM)30.36 "Hg (Apr 5, 6:50 PM)
Low36 °F (Apr 16, 2:50 AM)35% (Apr 4, 3:20 PM)29.39 "Hg (Apr 8, 6:20 AM)
Average45 °F84%29.86 "Hg
* Reported Apr 4 11:20 AM — Apr 19 11:20 AM, Haugesund, Weather by CustomWeather, © 2014

Note: Actual official high and low records may vary slightly from our data, if they occured in-between our weather recording intervals... More about our weather records

Advertising

Historic Weather Conditions — Data for Previous 24 hours

 ConditionsComfort  
Time TempWeatherWind HumidityBarometerVisibility
11:20 AM
Apr 19
52 °FSunny.9 mph58%30.30 "Hg10 mi
10:50 AM52 °FPassing clouds.9 mph58%30.30 "HgN/A
10:20 AM52 °FSunny.9 mph58%30.30 "Hg10 mi
9:50 AM50 °FSunny.10 mph58%30.27 "Hg10 mi
9:20 AM46 °FSunny.13 mph66%30.27 "Hg10 mi
7:50 AM43 °FSunny.12 mph81%30.24 "Hg10 mi
7:20 AM41 °FSunny.14 mph87%30.24 "Hg10 mi
6:50 AM39 °FClear.10 mph93%30.24 "Hg10 mi
6:20 AM39 °FChilly.13 mph93%30.24 "HgN/A
5:50 AM39 °FChilly.12 mph93%30.24 "HgN/A
4:50 AM37 °FChilly.9 mph87%30.24 "HgN/A
4:20 AM37 °FChilly.9 mph93%30.24 "HgN/A
3:50 AM37 °FChilly.9 mph87%30.24 "HgN/A
3:20 AM37 °FChilly.10 mph87%30.21 "HgN/A
2:50 AM37 °FChilly.8 mph87%30.21 "HgN/A
2:20 AM37 °FChilly.10 mph93%30.21 "HgN/A
1:50 AM36 °FChilly.7 mph93%30.21 "HgN/A
1:20 AM37 °FChilly.5 mph87%30.21 "HgN/A
12:50 AM41 °FQuite cool.6 mph81%30.18 "HgN/A
12:20 AM41 °FQuite cool.8 mph87%30.18 "HgN/A
11:50 PM
Apr 18
43 °FQuite cool.9 mph87%30.18 "HgN/A
11:20 PM43 °FQuite cool.10 mph87%30.18 "HgN/A
10:50 PM43 °FQuite cool.10 mph81%30.15 "HgN/A
10:20 PM43 °FClear.15 mph87%30.15 "Hg10 mi
9:50 PM43 °FSunny.13 mph87%30.15 "Hg10 mi
9:20 PM43 °FSunny.13 mph81%30.15 "Hg10 mi
8:50 PM45 °FSunny.15 mph76%30.12 "Hg10 mi
8:20 PM45 °FSunny.17 mph76%30.12 "Hg10 mi
7:50 PM45 °FSunny.20 mph76%30.09 "Hg10 mi
7:20 PM45 °FSunny.22 mph76%30.09 "Hg10 mi
6:50 PM45 °FSunny.21 mph76%30.09 "Hg10 mi
6:20 PM46 °FSunny.21 mph71%30.09 "Hg10 mi
5:50 PM46 °FSunny.23 mph71%30.09 "Hg10 mi
5:20 PM46 °FSunny.21 mph71%30.09 "Hg10 mi
4:50 PM46 °FSunny.20 mph71%30.09 "Hg10 mi
4:20 PM46 °FSunny.23 mph71%30.07 "Hg10 mi
3:50 PM46 °FSunny.23 mph66%30.07 "Hg10 mi
3:20 PM46 °FPassing clouds.18 mph71%30.07 "HgN/A
2:50 PM46 °FPassing clouds.22 mph71%30.04 "HgN/A
2:20 PM46 °FPassing clouds.23 mph71%30.04 "HgN/A
1:50 PM46 °FPassing clouds.21 mph71%30.04 "HgN/A
1:20 PM46 °FPassing clouds.22 mph71%30.04 "HgN/A
12:50 PM46 °FPassing clouds.23 mph71%30.01 "HgN/A
12:20 PM46 °FCool.24 mph66%30.01 "HgN/A
Weather by CustomWeather, © 2014

See weather overview